Location: Chester
(43.2628°N, 72.5951°W)
Time: 23:01:12
(UTC-05:00)

ISS - Visible Passes

Search period start: 21 February 2019 00:00
Search period end: 03 March 2019 00:00
Orbit: 403 x 411 km, 51.6° (Epoch: 22 February)

Date Brightness Start Highest point End Pass type
(mag) Time Alt. Az. Time Alt. Az. Time Alt. Az.
22 Feb -1.6 06:00:09 10° SSW 06:02:58 27° SE 06:05:47 10° ENE visible
23 Feb -0.9 05:09:44 10° S 05:11:42 15° SE 05:13:40 10° E visible
24 Feb -3.4 05:53:11 10° SW 05:56:25 65° SE 05:59:40 10° ENE visible
25 Feb -2.4 05:03:09 18° SSW 05:05:02 35° SE 05:08:03 10° ENE visible
26 Feb -1.3 04:14:10 19° ESE 04:14:10 19° ESE 04:16:08 10° E visible
26 Feb -3.6 05:46:54 11° WSW 05:49:58 56° NNW 05:53:13 10° NE visible
27 Feb -3.9 04:57:46 52° SW 04:58:28 85° SE 05:01:45 10° ENE visible
28 Feb -1.6 04:08:30 25° E 04:08:30 25° E 04:10:09 10° ENE visible
28 Feb -2.7 05:41:13 14° W 05:43:37 31° NNW 05:46:36 10° NE visible
01 Mar -3.4 04:51:50 45° NW 04:51:59 46° NNW 04:55:10 10° NE visible
02 Mar -1.3 04:02:23 22° NE 04:02:23 22° NE 04:03:40 10° NE visible
02 Mar -2.1 05:35:05 12° WNW 05:37:19 22° NNW 05:39:59 10° NE visible
